{"data":{"norad_id":57523,"epoch":"2026-09-20T21:37:06.360384Z","epoch_age_seconds":92994,"freshness":"FRESH","line1":"1 57523U 23115C   26263.90076806  .00001351  00000+0  58611-4 0  9993","line2":"2 57523  43.0034 339.3728 0001729 263.6444  96.4210 15.27580750172205","mean_motion":15.2758075,"eccentricity":0.0001729,"inclination_deg":43.0034,"raan_deg":339.3728,"arg_perigee_deg":263.6444,"mean_anomaly_deg":96.421,"bstar":5.8611e-5,"rev_number":17220,"period_min":94.266702431279,"perigee_km":481.86055158305,"apogee_km":484.23314895847,"semimajor_km":6861.1838502708,"source":"CELESTRAK","updated_at":"2026-09-21T09:00:33.636994Z"}}